Starlink 31946

operational
NORAD ID: 59940 Int'l Des: 2024-106 Owner: SPXS Country: US Constellation: starlink
LEOCIRCULAR

About Starlink 31946

Description loading...

Live Position

Loading 3D Globe...

Upcoming Passes

Altitude History

Altitude vs Time

uPlot chart will show altitude changes over time

Two-Line Element Set

1 59940U 24106U 25257.37739035 .00000908 00000-0 42506-4 0 9996
2 59940 43.0022 248.6266 0001092 270.8086 89.2640 15.27575597 64188
Epoch: Sep 14, 2025 • Age: 25 hours

Current Status

Altitude 495.6 km
Velocity 7.62 km/s
Sub-Earth Point -43.01°S, 17.13°E
Launch Date Jun 1, 2024
Age 1.2 years
Type internet

Technical Details

Classification Payload
Mass 730.00 kg
Dry Mass 700.00 kg
Total Mass 730.00 kg
Length 0.30 m
Diameter 4.10 m
Span 29.00 m
Shape Box + pan
Manufacturer SPXS
Bus Type Starlink V2M
Phase Status In Orbit
Owner/State SPXS/US

Large Constellations

Loading constellations...